Location: Unspecified
(43.4680°N, 87.1740°E)
Time: 11:33:24
(UTC+00:00)

Cosmos 1241 Rocket - Pass Details

Date: 17 January 2020
Orbit: 943 x 1005 km, 65.8° (Epoch: 20 February)

Event Time Altitude Azimuth Distance (km) Brightness Sun altitude
Rises 13:18:59 0° 326° (NNW) 3,616 7.8 -24.4°
Reaches altitude 10° 13:21:31 10° 326° (NNW) 2,668 7.1 -24.9°
Maximum altitude 13:27:45 86° 239° (WSW) 954 4.4 -26.0°
Enters shadow 13:30:15 39° 153° (SSE) 1,385 5.1 -26.4°
